TimeCST,TemperatureF,Dew PointF,Humidity,Sea Level PressureIn,VisibilityMPH,Wind Direction,Wind SpeedMPH,Gust SpeedMPH,PrecipitationIn,Events,Conditions,WindDirDegrees,DateUTC
12:53 AM,43.0,39.0,86,30.19,6.0,North,8.1,-,N/A,,Overcast,360,2013-01-09 06:53:00
1:53 AM,41.0,37.9,89,30.18,5.0,North,9.2,-,N/A,,Clear,10,2013-01-09 07:53:00
2:53 AM,41.0,37.9,89,30.16,5.0,NNE,9.2,-,N/A,,Clear,20,2013-01-09 08:53:00
3:53 AM,39.0,37.0,93,30.19,5.0,North,9.2,-,N/A,,Clear,10,2013-01-09 09:53:00
4:53 AM,39.0,35.1,86,30.20,9.0,North,15.0,-,N/A,,Clear,10,2013-01-09 10:53:00
5:53 AM,39.0,33.1,79,30.22,10.0,NNE,13.8,-,N/A,,Clear,20,2013-01-09 11:53:00
6:53 AM,39.9,33.1,77,30.25,10.0,North,10.4,-,N/A,,Overcast,10,2013-01-09 12:53:00
7:53 AM,41.0,33.1,73,30.27,10.0,NNE,17.3,-,N/A,,Overcast,20,2013-01-09 13:53:00
8:38 AM,41.0,32.0,70,30.27,9.0,NNE,18.4,-,N/A,,Overcast,20,2013-01-09 14:38:00
8:53 AM,41.0,33.1,73,30.30,9.0,NNE,16.1,-,N/A,,Overcast,20,2013-01-09 14:53:00
9:53 AM,43.0,34.0,71,30.32,9.0,NE,12.7,-,N/A,,Overcast,40,2013-01-09 15:53:00
10:53 AM,44.1,35.1,71,30.31,9.0,NE,19.6,-,N/A,,Overcast,40,2013-01-09 16:53:00
11:53 AM,44.6,35.6,71,30.27,9.0,NE,19.6,-,N/A,,Overcast,40,2013-01-09 17:53:00
12:53 PM,44.1,39.0,82,30.24,3.0,NE,23.0,28.8,0.00,Rain,Light Rain,40,2013-01-09 18:53:00
1:01 PM,44.6,39.2,81,30.22,2.0,NE,21.9,28.8,0.00,Rain,Light Rain,50,2013-01-09 19:01:00
1:11 PM,44.6,41.0,87,30.21,1.5,NE,23.0,-,0.00,Rain,Light Rain,50,2013-01-09 19:11:00
1:53 PM,44.1,43.0,96,30.20,1.8,NE,25.3,31.1,0.01,Rain,Light Rain,40,2013-01-09 19:53:00
2:22 PM,44.6,42.8,93,30.19,1.5,NE,21.9,-,0.00,Rain,Light Rain,40,2013-01-09 20:22:00
2:50 PM,42.8,41.0,93,30.20,1.2,NE,17.3,-,0.00,Rain,Light Rain,40,2013-01-09 20:50:00
2:53 PM,43.0,41.0,93,30.21,1.5,NE,17.3,-,0.01,Rain,Light Rain,40,2013-01-09 20:53:00
3:19 PM,42.8,41.0,93,30.19,2.5,NE,16.1,-,0.00,Rain,Light Rain,40,2013-01-09 21:19:00
3:31 PM,42.8,42.8,100,30.19,1.5,NE,17.3,-,0.01,Rain,Light Rain,50,2013-01-09 21:31:00
3:42 PM,44.6,42.8,93,30.18,2.5,NE,18.4,-,0.01,Rain,Light Rain,40,2013-01-09 21:42:00
3:51 PM,44.6,42.8,93,30.17,3.0,NE,18.4,-,0.01,Rain,Light Rain,40,2013-01-09 21:51:00
3:53 PM,44.1,42.1,93,30.17,4.0,NE,20.7,-,0.01,,Overcast,40,2013-01-09 21:53:00
4:04 PM,44.6,42.8,93,30.16,3.0,NE,19.6,27.6,N/A,,Overcast,40,2013-01-09 22:04:00
4:14 PM,44.6,42.8,93,30.17,2.5,NE,18.4,-,N/A,,Overcast,50,2013-01-09 22:14:00
4:36 PM,44.6,42.8,93,30.18,3.0,NE,16.1,-,0.00,Rain,Light Rain,50,2013-01-09 22:36:00
4:43 PM,44.6,42.8,93,30.19,3.0,NE,16.1,-,0.00,Rain,Light Rain,50,2013-01-09 22:43:00
4:53 PM,44.1,41.0,89,30.20,1.5,NE,16.1,-,0.01,Rain,Rain,50,2013-01-09 22:53:00
5:41 PM,42.8,41.0,93,30.17,2.5,NE,15.0,-,0.12,Rain,Rain,40,2013-01-09 23:41:00
5:53 PM,43.0,41.0,93,30.18,4.0,NE,17.3,-,0.14,Rain,Light Rain,40,2013-01-09 23:53:00
6:53 PM,43.0,41.0,93,30.15,6.0,NE,21.9,31.1,0.01,Rain,Light Rain,50,2013-01-10 00:53:00
7:53 PM,43.0,42.1,97,30.13,3.0,NE,23.0,-,0.02,Rain,Light Rain,50,2013-01-10 01:53:00
8:13 PM,44.6,42.8,93,30.10,8.0,NE,25.3,-,0.00,Rain,Light Rain,50,2013-01-10 02:13:00
8:53 PM,44.1,43.0,96,30.12,5.0,ENE,20.7,26.5,0.08,Rain,Light Rain,60,2013-01-10 02:53:00
9:24 PM,44.6,44.6,100,30.09,2.0,ENE,20.7,-,0.03,Rain,Light Rain,60,2013-01-10 03:24:00
9:38 PM,44.6,42.8,93,30.10,4.0,ENE,21.9,-,N/A,Rain,Light Rain,60,2013-01-10 03:38:00
9:53 PM,44.1,44.1,100,30.10,4.0,ENE,21.9,-,0.03,Rain,Light Rain,60,2013-01-10 03:53:00
10:33 PM,44.6,44.6,100,30.09,1.8,ENE,20.7,-,0.00,Rain,Light Rain,70,2013-01-10 04:33:00
10:44 PM,44.6,44.6,100,30.09,2.0,ENE,20.7,-,0.01,Rain,Light Rain,60,2013-01-10 04:44:00
10:53 PM,45.0,44.1,97,30.10,2.5,ENE,18.4,-,0.01,Rain,Light Rain,60,2013-01-10 04:53:00
11:06 PM,44.6,44.6,100,30.09,3.0,ENE,18.4,-,N/A,,Overcast,60,2013-01-10 05:06:00
11:36 PM,44.6,44.6,100,30.07,2.0,ENE,19.6,-,0.02,Rain,Light Rain,60,2013-01-10 05:36:00
11:53 PM,45.0,44.1,97,30.07,3.0,ENE,18.4,-,0.03,Rain,Light Rain,60,2013-01-10 05:53:00